Wind_Speed
31 31 30 30 30 30 31 32 33 34 34 35 35 35 35 35 34 34 33 32 32 32 31 31 31 30 29 29 28 28 27 26 25 24 23 22 22 22 23 25 26 26 26 26 27 28 30 32 32 32 32 32 31 32 32 33 34 33 31 29 29 30 29 29 28 28 28 28 28 28 28 27 26 25 24 23 23 23 23 23 23 23 23 24 24 25 26 27
33 33 33 32 32 32 32 33 34 35 36 36 36 36 37 37 36 36 35 35 34 33 33 33 33 32 31 31 30 30 29 28 27 26 24 23 23 22 23 24 26 27 27 27 27 29 30 31 33 33 33 33 33 33 33 33 34 34 33 30 29 29 29 28 27 27 27 27 28 29 29 28 27 26 25 24 23 22 22 22 22 22 23 23 24 25 26 27
34 35 35 34 34 34 34 34 35 36 37 37 38 38 38 39 39 38 38 37 36 36 35 35 35 34 33 33 32 31 31 30 28 28 26 25 24 23 23 24 26 27 28 28 29 30 32 33 33 34 34 34 34 34 34 34 35 35 34 32 30 28 28 28 27 27 27 27 28 28 29 29 29 28 27 26 24 23 23 22 22 22 22 23 23 25 26 27
36 36 36 36 36 36 36 36 36 37 37 38 38 39 40 40 40 40 40 39 39 38 37 37 37 36 35 35 34 33 33 31 30 30 28 27 26 25 24 25 26 28 29 30 30 32 33 34 34 34 35 35 35 36 35 35 36 36 36 34 32 30 29 28 27 27 27 27 28 29 30 30 30 30 29 28 27 26 25 24 23 23 23 24 25 26 27 29
37 37 38 38 38 38 38 38 37 38 38 39 39 40 41 41 42 42 42 42 41 40 40 39 39 38 38 37 36 36 34 33 33 32 30 29 27 26 26 26 27 28 29 31 32 33 34 34 34 35 35 35 36 36 36 36 36 37 37 35 33 31 30 29 28 27 27 27 28 29 30 31 31 31 31 31 30 29 28 27 26 26 26 26 27 29 30 31
39 39 39 40 40 40 40 39 39 38 39 39 39 40 41 42 43 43 43 44 43 43 42 41 41 40 40 39 38 38 37 35 35 34 32 31 29 28 27 27 27 28 30 31 32 34 35 35 35 35 35 36 36 36 37 36 36 37 38 36 34 33 31 30 30 29 29 29 29 30 31 32 32 32 32 32 32 31 31 30 30 30 29 30 30 31 32 33
40 40 41 41 41 41 41 41 40 39 39 39 40 40 41 42 43 44 44 45 45 45 44 43 43 42 42 41 40 39 39 38 36 36 34 33 31 30 28 28 29 29 30 32 33 34 35 36 36 36 36 36 37 37 37 36 35 36 38 37 35 33 31 31 31 31 31 30 31 31 32 33 32 32 32 33 32 32 33 32 32 32 32 33 33 34 35 35
40 41 41 42 42 42 41 41 41 40 40 40 40 40 41 42 43 44 44 45 46 47 46 45 45 44 43 43 42 41 41 39 38 38 37 35 33 31 30 30 30 30 31 32 33 34 35 36 37 37 37 37 38 38 37 36 35 35 37 37 35 33 31 30 31 31 31 31 32 32 32 33 33 32 32 32 33 33 33 34 34 34 35 35 35 36 37 37
39 40 41 42 43 43 42 41 41 40 40 40 40 41 41 42 43 44 45 45 46 47 48 48 47 46 45 44 44 43 42 41 40 39 39 37 35 33 32 31 31 32 32 33 34 34 35 36 37 38 38 39 39 39 38 36 35 35 37 37 36 34 32 30 30 31 31 32 32 32 33 33 33 32 32 33 34 34 34 35 35 36 36 36 37 38 38 38
37 39 41 42 43 44 44 43 42 41 41 41 41 41 41 42 43 44 45 45 46 47 48 49 49 48 47 46 46 45 43 42 42 41 41 40 38 36 34 33 33 33 33 34 34 35 36 36 38 39 39 40 40 40 38 36 35 36 37 37 35 34 32 30 29 30 31 31 32 33 33 33 33 33 33 34 34 35 35 35 36 37 37 38 38 39 38 38
36 37 39 41 42 43 44 44 44 43 42 42 42 42 42 42 43 44 44 45 46 47 48 49 49 49 49 48 48 47 45 44 43 43 43 42 41 38 37 35 34 34 34 34 35 36 36 37 38 39 40 41 41 41 39 37 35 36 37 37 35 33 32 30 29 29 29 30 31 33 34 33 33 33 33 34 35 35 36 36 36 37 37 38 38 39 39 38
34 35 37 39 40 42 43 44 44 44 43 43 42 43 43 43 43 44 44 44 46 47 47 48 49 50 50 50 49 49 47 46 45 44 44 44 43 41 39 38 37 36 35 35 36 37 37 37 38 39 40 41 42 42 40 38 35 35 37 38 36 33 32 30 29 28 29 29 30 33 36 34 32 33 34 34 35 35 36 37 37 37 37 38 38 39 39 39
32 33 35 37 38 40 41 42 43 43 43 43 43 43 44 44 43 44 44 44 45 45 47 48 49 49 50 51 50 50 49 48 47 47 47 46 45 44 42 40 39 38 37 37 37 38 38 38 39 39 40 42 43 42 41 39 37 35 36 37 37 35 32 31 30 29 28 29 30 32 36 36 33 33 34 35 36 36 37 38 39 39 39 39 39 39 40 40
31 32 33 34 35 37 38 40 41 42 42 43 43 43 44 44 44 44 44 44 44 44 45 46 48 48 50 51 51 50 50 50 49 49 48 48 47 46 44 43 41 40 39 38 38 38 39 39 39 39 41 42 43 43 41 40 38 35 35 36 37 36 34 32 31 31 30 30 31 31 36 39 36 35 36 37 38 39 39 40 40 40 40 40 40 41 42 42
30 31 31 32 33 34 36 37 38 39 40 42 42 42 43 45 45 45 45 45 44 44 44 45 46 47 49 51 51 51 51 51 50 50 50 49 49 48 46 45 43 42 41 40 40 39 40 40 40 40 41 43 44 43 42 41 39 37 35 35 36 37 37 34 32 33 32 32 32 32 35 39 38 37 38 38 40 42 42 42 42 42 42 42 43 43 44 45
32 32 32 31 32 33 34 35 35 37 38 39 41 41 42 44 45 45 45 45 45 45 44 44 45 45 47 50 51 51 51 52 52 52 51 51 50 49 48 47 46 44 43 42 41 40 41 42 41 42 42 43 44 44 43 41 40 39 38 37 36 37 38 37 34 34 35 34 35 34 34 39 39 38 39 40 42 44 45 45 45 44 44 44 44 45 46 47
35 35 34 34 33 33 33 33 34 36 37 37 38 40 40 42 44 43 44 45 44 45 44 45 44 44 46 48 50 51 51 52 53 53 53 52 51 50 49 48 47 46 45 44 43 42 42 43 43 43 44 44 45 45 44 42 41 40 40 40 38 37 37 38 37 36 37 38 38 36 35 40 43 41 41 42 43 46 47 47 47 47 46 47 47 47 48 48
38 37 37 36 36 35 35 34 35 35 36 35 36 38 37 39 42 42 42 43 44 44 44 45 44 43 45 47 48 50 51 52 53 53 53 52 51 51 50 49 49 48 47 46 45 44 44 44 44 45 45 45 46 46 45 43 41 40 41 41 41 39 38 36 36 37 38 39 41 40 36 40 46 46 44 44 46 48 49 49 49 50 50 50 50 50 50 50
40 40 39 39 38 38 38 37 37 37 37 36 35 36 35 35 38 40 41 41 42 43 43 44 43 44 45 45 47 48 50 52 53 54 54 52 51 51 50 50 49 49 49 48 46 46 45 45 47 46 46 47 46 47 46 44 42 41 41 42 42 42 41 39 36 36 37 37 41 42 38 40 46 49 49 47 48 50 51 51 51 52 53 54 54 53 53 52
44 43 43 42 41 41 40 40 40 39 40 39 37 36 35 34 35 36 37 39 40 41 42 42 43 44 44 44 45 47 49 51 53 54 54 53 52 51 51 50 49 49 49 49 48 48 47 48 49 48 47 48 47 48 48 46 43 42 42 42 42 42 42 42 39 37 36 34 38 40 37 39 45 49 52 50 49 52 52 51 52 54 55 56 57 56 55 55
47 47 47 46 45 44 43 42 42 42 42 42 41 39 37 36 35 34 34 36 37 38 40 41 41 42 43 44 44 46 48 51 53 54 53 53 52 51 51 50 50 50 50 49 49 50 49 50 51 49 49 49 48 49 49 48 46 44 43 43 43 42 40 43 42 40 38 35 36 39 36 38 43 47 52 53 52 54 54 53 54 55 56 58 58 58 57 57
49 50 49 49 49 48 47 46 45 45 45 44 43 42 41 39 38 36 34 33 34 35 37 39 40 41 42 43 44 46 48 51 53 54 53 53 53 52 51 51 51 51 51 50 50 50 50 52 53 51 50 50 49 50 51 50 48 46 45 45 44 42 40 42 44 43 41 38 38 40 38 39 43 45 50 53 54 57 58 56 57 57 57 57 58 58 58 57
52 52 52 52 52 51 50 49 49 48 47 47 46 45 44 43 41 39 37 34 33 35 36 36 37 39 40 42 44 47 49 52 53 53 54 53 53 52 51 52 51 51 53 52 51 51 52 54 55 54 52 51 51 52 53 52 50 48 48 47 45 44 41 40 44 45 45 43 41 42 40 39 42 45 49 53 56 62 62 59 59 59 58 58 58 59 59 57
54 54 54 54 53 53 52 52 51 51 51 50 49 48 47 46 45 43 41 36 33 35 37 37 36 37 39 41 44 48 50 52 52 53 54 53 53 52 52 53 52 53 54 53 52 52 54 56 55 55 53 52 53 54 55 53 50 49 50 50 46 45 44 42 43 45 46 47 45 47 42 37 41 43 46 51 55 64 65 61 61 60 58 59 59 59 59 57
57 57 56 56 56 55 54 53 53 54 53 52 52 51 50 49 48 46 44 40 34 36 39 39 39 39 40 41 44 47 49 51 52 53 54 53 53 52 53 53 53 55 56 54 53 53 56 58 56 55 54 54 55 57 58 55 51 51 52 52 48 46 46 45 46 46 47 47 48 53 47 37 39 39 42 49 52 62 67 63 63 62 60 60 59 59 58 57
58 58 58 58 58 57 56 55 56 56 55 55 54 54 53 51 50 49 47 42 36 37 40 42 42 42 43 45 46 48 49 50 51 52 52 52 52 52 53 54 54 56 56 55 54 54 57 58 56 56 56 57 59 59 60 57 53 52 53 54 50 49 49 49 51 49 49 48 47 56 57 42 37 39 42 47 52 61 65 63 64 64 62 62 60 59 57 57
60 60 60 59 60 60 59 58 59 59 58 57 56 56 55 54 53 51 50 45 37 37 41 44 44 43 45 49 50 51 51 51 52 51 52 52 51 52 53 54 56 56 56 56 55 55 58 58 58 58 58 59 61 62 62 60 56 53 53 54 53 53 52 52 54 53 52 50 46 57 64 47 38 41 42 44 53 60 64 65 65 64 64 63 61 59 58 57
61 62 61 60 61 61 61 61 61 61 60 59 59 58 57 56 55 54 52 46 38 38 42 44 45 46 48 51 52 53 53 53 54 53 54 54 53 54 54 56 57 57 58 57 55 57 59 59 59 60 61 62 64 64 63 62 58 55 55 55 55 56 56 56 56 56 55 51 48 58 64 52 42 41 40 44 54 60 64 66 66 66 66 64 62 60 59 59
62 63 62 61 62 62 62 62 62 63 63 62 62 60 59 58 56 55 53 45 40 42 44 45 47 49 51 53 53 54 54 55 55 55 56 56 55 56 56 58 59 58 59 59 58 60 61 61 62 62 63 64 64 64 63 62 59 57 57 57 58 58 58 58 58 59 59 53 52 59 60 54 45 38 40 48 54 58 63 67 67 68 68 65 63 61 61 61
64 64 63 62 62 63 63 64 64 65 65 65 64 64 62 60 58 55 49 43 43 47 47 47 50 52 53 54 54 55 55 56 56 56 56 57 57 57 58 59 61 61 62 61 61 63 63 63 63 63 64 64 64 64 62 62 61 60 60 60 61 61 60 61 60 62 61 55 56 59 56 54 47 40 44 51 53 57 62 67 69 71 70 67 65 63 63 63
65 66 65 64 64 64 64 65 65 66 66 66 65 64 63 61 57 50 43 43 49 50 49 52 54 55 56 56 56 57 57 57 57 57 57 57 57 57 58 60 62 62 62 61 62 63 62 62 62 63 64 64 64 63 62 62 62 62 63 63 64 64 64 64 63 64 63 58 57 56 53 52 47 44 48 51 53 57 63 68 70 72 72 68 67 66 65 64
68 68 67 66 67 67 67 67 67 67 66 66 66 63 62 58 48 41 42 48 52 50 52 56 57 57 58 58 57 58 58 57 57 57 57 56 56 56 58 60 62 64 63 62 64 64 61 61 63 63 64 64 64 64 63 63 64 64 65 67 68 68 69 67 65 66 64 60 57 53 52 51 47 47 51 52 54 58 65 71 72 74 73 70 69 68 67 67
69 69 69 69 69 70 70 70 70 69 68 69 67 63 61 52 38 37 46 52 54 53 55 57 57 58 59 58 58 59 60 59 60 60 59 59 58 58 60 62 64 67 67 66 66 66 64 61 63 66 66 64 65 66 67 66 66 66 67 70 71 72 75 72 68 66 61 57 56 54 52 49 48 49 50 52 55 61 68 72 74 76 74 71 71 70 69 70
72 71 70 70 70 72 73 74 73 73 73 72 69 66 61 48 38 42 50 54 57 58 57 58 60 61 61 60 61 63 64 64 64 64 64 63 61 61 62 64 66 69 70 70 69 69 67 62 62 68 67 66 67 69 69 69 69 69 70 73 74 76 79 75 67 64 61 56 55 55 53 49 50 50 50 53 58 63 69 73 76 77 75 73 72 71 71 70
76 75 73 72 72 74 75 76 75 75 75 73 73 69 57 46 45 49 52 56 60 61 60 62 62 61 60 60 62 64 67 68 67 67 67 65 64 63 63 65 68 71 73 74 74 74 72 66 65 70 70 70 71 71 72 73 72 72 73 75 75 75 76 73 68 65 64 60 55 55 54 49 49 50 50 56 61 66 71 74 76 77 75 73 72 71 71 70
80 78 77 74 75 77 78 77 76 77 76 75 74 65 52 48 52 52 52 56 61 62 65 65 63 61 59 58 60 63 66 67 66 67 67 67 66 64 64 67 70 73 75 77 79 80 77 71 68 71 73 73 74 73 74 73 73 73 73 73 73 71 71 72 71 68 69 67 57 54 54 48 45 47 49 57 64 67 70 72 73 76 74 72 71 71 71 72
82 81 78 76 78 82 83 80 79 79 78 78 74 61 51 52 54 54 56 59 62 65 68 66 63 62 61 60 60 63 67 67 64 65 66 65 62 57 60 67 69 73 77 80 83 84 82 76 71 71 73 72 73 72 70 69 71 72 71 70 69 70 71 73 76 73 73 73 62 54 55 49 44 46 50 57 65 68 69 69 71 73 72 70 69 71 72 73
85 83 81 79 82 86 87 85 84 83 83 81 73 61 56 57 56 59 63 63 65 68 68 66 64 65 65 64 63 66 70 69 66 66 66 64 59 53 57 65 67 70 75 81 85 85 85 82 74 71 72 72 69 67 66 66 69 70 68 67 68 71 74 76 80 78 76 77 69 58 57 51 45 49 55 61 68 70 69 68 70 71 69 69 70 72 74 75
86 85 82 83 87 89 89 88 88 88 87 81 72 65 63 61 59 62 65 67 69 70 68 66 66 68 67 66 67 70 72 71 70 70 69 65 61 56 59 65 68 71 76 82 86 86 87 87 80 74 72 70 66 65 66 67 69 69 68 69 70 74 79 80 81 80 79 82 78 69 61 49 45 53 60 65 70 70 68 68 70 72 71 71 72 74 76 79
87 85 83 85 90 92 92 93 93 91 88 81 74 71 67 65 64 65 67 70 72 72 71 69 69 70 67 68 70 72 73 74 73 73 70 66 62 60 61 66 71 75 78 81 84 85 87 89 85 78 71 68 66 65 67 68 70 72 72 72 73 77 82 83 81 80 82 85 83 79 69 49 44 55 62 65 68 68 69 71 73 75 75 74 75 77 82 86
91 88 85 87 93 96 97 97 95 93 88 81 77 74 71 69 68 67 69 72 73 74 74 72 72 72 70 71 72 73 76 76 74 75 72 68 66 65 65 69 74 76 78 80 82 84 87 90 88 79 70 67 66 67 69 70 72 74 75 75 76 80 83 84 84 81 83 87 85 87 80 52 42 55 62 64 67 67 70 75 76 77 77 77 80 83 88 91
94 91 88 91 95 97 99 99 96 94 89 82 79 79 78 75 71 69 70 72 73 74 75 75 74 74 74 74 74 75 77 77 75 75 74 71 70 70 71 75 77 77 79 82 82 84 89 91 88 79 71 69 68 69 70 72 74 75 75 75 77 80 81 84 87 84 85 87 84 90 86 55 41 58 65 64 67 68 72 78 79 79 80 81 86 89 93 96
96 94 94 96 98 99 101 99 96 94 90 85 85 85 84 81 77 75 74 74 75 75 76 76 75 77 78 77 77 78 78 78 75 73 74 73 72 74 78 79 80 81 83 84 86 88 92 92 88 82 76 73 71 70 70 71 74 76 75 75 76 77 78 81 85 85 85 82 80 89 87 59 48 62 66 64 69 72 75 81 83 83 84 87 91 94 97 100
101 100 99 99 100 101 101 98 96 96 94 91 90 89 87 86 82 80 79 79 80 80 78 76 75 77 78 79 80 79 79 79 77 75 77 77 75 77 80 82 84 87 88 89 91 94 96 95 92 87 81 76 72 70 70 72 76 77 74 74 75 75 76 78 82 86 84 78 79 90 87 67 59 65 66 68 75 78 80 85 88 88 90 92 95 99 101 104
106 105 104 103 104 104 101 98 98 99 98 96 94 91 90 89 85 83 84 84 84 84 83 81 79 79 79 80 81 79 80 81 81 81 80 79 78 79 81 85 87 88 90 93 96 99 100 98 94 89 83 78 71 69 71 75 78 78 75 75 77 77 78 79 80 85 85 82 87 92 87 78 72 68 71 77 82 84 87 90 92 93 95 98 101 103 105 107
111 109 107 106 108 108 104 100 100 101 100 99 98 96 94 92 89 88 88 87 86 87 87 87 86 85 83 82 81 80 81 83 85 85 80 77 78 80 83 87 89 91 93 94 96 98 98 95 89 85 84 80 73 72 75 78 79 80 80 80 80 79 81 81 81 84 87 90 95 91 87 89 82 72 76 86 90 92 93 95 97 99 101 104 106 107 109 110
116 112 109 108 111 111 108 104 103 102 101 103 103 101 97 95 93 91 90 88 88 90 91 90 89 88 86 85 85 85 85 85 87 83 76 75 79 82 85 88 90 92 93 94 96 97 96 93 86 85 86 83 78 77 81 84 84 85 85 83 81 81 83 84 84 85 89 98 99 90 90 97 90 78 84 94 97 98 98 99 102 104 106 109 111 112 114 115
119 114 111 111 114 113 110 106 106 107 107 107 107 104 101 98 95 93 92 93 92 93 94 92 90 89 88 89 92 92 91 90 87 81 77 80 84 87 89 90 91 92 93 95 96 95 97 95 88 88 89 84 80 80 85 90 90 90 89 84 81 82 84 86 89 90 94 100 98 92 96 99 90 86 94 99 100 102 104 106 108 110 112 114 116 117 118 119
122 118 116 116 116 115 113 110 110 112 112 111 110 108 105 100 97 96 97 98 97 96 97 95 92 91 93 95 98 99 96 91 88 86 87 90 92 93 95 95 94 94 95 95 95 95 98 96 91 91 92 87 83 84 90 96 95 93 90 84 82 85 88 91 93 94 97 100 99 100 102 96 88 95 105 105 105 109 111 112 114 115 117 118 119 120 121 123
124 121 120 120 120 119 118 115 115 115 114 114 114 111 107 103 101 101 102 102 102 101 100 98 94 95 98 101 103 102 96 92 92 93 95 99 100 101 101 99 98 99 99 98 98 98 100 99 95 96 99 94 87 90 97 100 98 98 93 84 84 92 96 96 95 96 100 104 105 107 105 95 94 104 112 111 112 115 115 115 117 119 120 121 122 123 124 126
124 123 123 125 125 123 122 120 119 120 119 119 117 112 109 107 104 105 106 106 105 103 102 101 99 100 103 105 104 100 95 96 101 102 102 105 106 105 104 103 102 103 103 102 102 102 103 102 100 102 105 99 92 96 101 101 103 104 93 85 90 100 102 98 96 99 105 110 112 111 107 102 104 111 115 115 116 118 117 118 120 121 122 122 124 125 127 128
127 126 127 129 129 128 126 125 125 125 125 123 121 117 115 113 109 110 112 111 108 107 107 107 106 107 107 106 103 100 100 104 108 108 108 109 109 108 107 106 106 107 107 107 107 107 106 106 106 108 111 107 102 102 104 107 109 101 88 89 98 103 102 102 101 104 109 114 116 115 111 110 113 117 118 118 119 119 120 121 121 122 123 124 125 127 128 129
Wind_Direction
268 268 268 268 269 270 271 272 272 271 269 268 267 265 261 258 257 256 256 257 259 261 262 264 265 267 268 271 273 275 276 277 278 281 284 288 293 296 299 301 303 304 307 310 314 318 321 325 328 332 335 337 339 339 341 344 346 347 345 339 336 337 338 339 340 341 342 340 340 341 341 341 340 338 336 335 333 331 330 328 328 329 330 329 328 326 324 323
266 267 267 267 268 268 270 271 271 271 270 269 267 266 264 262 260 259 258 258 259 260 262 263 265 266 267 268 270 272 274 275 277 279 281 284 288 293 297 300 302 304 306 308 311 314 319 322 325 328 331 333 336 337 338 340 342 345 344 340 335 334 336 336 337 339 339 339 339 340 340 341 341 340 340 338 337 336 333 332 332 331 331 330 328 326 324 323
265 266 266 267 268 269 270 271 271 271 271 270 269 267 265 264 262 261 260 259 259 260 261 263 264 265 266 267 268 270 272 273 275 277 279 281 285 290 295 299 302 305 306 308 310 313 316 319 322 325 327 330 333 334 335 336 338 341 342 340 335 331 331 332 334 335 336 337 337 337 336 336 336 336 336 334 335 334 333 333 332 330 329 329 327 325 324 323
263 265 266 267 268 269 270 271 272 272 271 271 270 269 267 265 264 263 262 261 261 260 261 263 264 265 266 267 268 269 270 272 273 275 277 279 283 287 292 296 300 302 305 307 309 311 313 316 320 322 323 326 330 332 333 333 334 337 338 337 335 330 327 328 329 330 332 333 333 333 333 332 332 331 330 329 329 329 328 328 327 326 325 325 324 323 323 322
262 263 265 267 268 269 270 271 272 272 272 272 272 271 270 268 266 264 263 262 262 262 262 262 264 265 266 267 267 268 269 271 272 274 275 278 281 284 288 293 297 300 302 305 307 309 311 314 316 318 320 323 326 329 330 330 330 333 335 335 333 330 325 323 324 325 326 328 329 329 330 329 329 328 326 324 324 324 323 323 323 323 322 322 322 322 321 321
261 263 265 266 268 269 270 270 271 272 271 272 273 273 273 271 269 267 265 264 264 263 263 263 264 265 266 267 267 268 269 269 271 272 274 276 278 281 285 289 293 297 300 302 304 307 309 311 314 316 318 320 322 324 326 326 326 329 331 331 331 329 324 319 318 320 322 324 325 325 326 325 328 328 324 321 320 320 320 321 321 321 320 320 320 319 319 318
261 262 264 266 268 269 270 270 271 271 271 271 272 273 274 274 272 270 268 267 265 265 265 265 265 266 267 267 268 268 268 269 270 271 272 274 276 279 282 286 290 294 296 299 301 304 307 309 311 313 315 317 318 320 321 322 322 325 327 328 329 327 323 317 314 315 318 321 322 323 323 323 327 328 323 319 318 319 319 319 319 318 318 317 317 316 316 316
262 262 263 265 267 268 269 270 270 270 270 271 271 272 274 275 275 273 271 269 268 267 266 266 266 267 267 268 268 269 269 269 269 270 271 272 274 277 280 283 287 291 293 296 299 302 304 307 309 311 312 314 316 317 318 318 318 321 324 326 327 325 322 317 313 312 314 318 320 320 320 322 327 327 323 318 316 316 316 316 316 315 314 314 313 313 314 314
262 263 263 264 266 268 269 270 270 270 270 270 271 271 272 274 275 275 273 271 270 269 268 268 268 268 268 269 270 270 270 269 270 271 271 272 273 275 278 281 284 288 290 293 295 298 301 304 306 308 310 311 313 315 317 316 315 318 322 324 325 325 322 318 313 311 312 315 317 318 318 321 325 325 321 317 315 314 313 312 311 311 310 310 311 311 311 312
263 263 264 265 266 267 268 270 270 270 270 270 270 271 272 272 274 275 274 273 272 270 269 269 269 269 269 270 270 271 271 271 271 271 272 273 273 274 277 279 282 284 287 290 293 295 298 301 303 305 307 309 311 313 315 314 313 315 319 322 323 323 322 318 314 312 312 313 314 315 314 319 323 321 319 317 316 315 313 311 309 308 308 309 309 309 310 311
264 264 264 265 265 266 267 268 269 270 270 270 270 270 271 272 273 274 274 274 273 272 271 270 269 269 270 270 271 272 272 272 272 272 273 273 273 274 275 277 279 281 284 287 290 293 296 298 300 303 305 307 310 311 313 313 311 313 316 319 321 321 320 318 315 312 312 312 313 313 312 317 321 319 318 317 317 317 315 313 311 310 309 309 309 309 309 309
266 266 265 265 265 266 266 267 268 268 269 269 269 269 270 271 271 272 273 274 274 273 272 272 271 270 270 270 270 271 272 273 273 272 272 273 273 274 275 276 277 279 282 284 287 290 293 296 298 300 303 305 307 309 311 311 309 311 314 316 318 319 318 317 314 311 311 311 313 313 310 314 319 316 315 316 317 317 316 315 314 313 313 312 312 311 311 310
268 269 268 268 268 268 267 267 267 267 268 268 268 268 269 269 270 271 271 272 273 273 273 272 272 271 271 270 270 271 271 272 273 272 272 272 273 273 274 275 276 278 279 281 285 287 290 294 296 299 301 303 305 307 308 309 308 308 311 313 314 315 315 315 313 310 310 309 311 312 309 312 316 314 313 314 316 316 315 315 315 316 316 314 314 314 313 312
272 272 272 273 273 272 272 271 270 269 268 268 267 267 268 268 269 269 270 270 271 271 272 272 272 271 271 271 271 270 271 271 272 272 272 272 272 273 274 275 276 277 278 280 282 285 288 292 294 297 299 301 302 304 305 306 306 305 307 310 312 312 312 313 312 309 309 308 309 312 309 310 314 312 311 314 315 315 314 314 316 317 316 315 315 314 314 313
273 274 275 276 276 276 276 276 275 274 272 270 268 267 267 268 268 268 269 269 270 270 270 271 271 270 270 270 270 270 270 270 271 271 271 271 272 273 274 275 276 276 277 278 279 283 286 289 293 295 297 299 300 302 303 304 304 304 304 306 309 309 308 309 309 307 308 307 308 311 310 308 311 311 311 313 314 314 313 314 316 316 316 316 315 314 313 313
271 273 274 276 277 278 279 280 279 278 276 274 271 269 268 268 267 267 268 268 269 269 269 270 270 270 269 269 269 269 269 269 269 270 270 271 271 272 274 275 276 276 277 277 278 281 284 287 290 292 295 297 298 300 301 302 303 302 302 304 306 307 307 306 306 304 305 306 306 310 310 307 308 309 310 311 312 311 311 313 314 314 316 316 315 313 312 312
269 270 272 274 275 277 279 280 281 280 279 278 276 273 271 269 269 268 268 268 268 268 269 270 269 269 269 269 269 268 268 268 268 269 269 270 271 272 273 274 275 276 277 277 277 279 282 286 288 290 292 295 297 298 299 300 300 301 301 302 305 306 305 306 306 304 304 304 303 306 310 307 306 307 309 309 309 308 308 310 311 313 315 315 315 314 313 313
268 270 271 272 274 276 277 278 279 280 280 280 279 278 276 273 272 271 270 269 269 269 269 269 269 269 269 269 269 269 268 268 268 268 269 269 270 271 272 273 275 276 277 277 277 279 282 285 287 288 290 293 295 295 296 297 297 299 300 301 304 305 305 305 306 306 306 305 301 303 309 307 305 306 307 308 307 306 306 308 309 311 313 314 314 314 314 314
267 269 270 271 273 274 275 277 278 279 280 279 279 280 279 277 276 274 273 272 271 271 270 270 270 269 269 269 269 270 270 269 269 269 269 269 270 271 271 272 274 276 277 278 278 279 282 285 286 287 289 291 293 293 294 294 295 297 298 298 301 304 306 305 306 307 308 307 302 303 310 307 304 305 305 306 305 303 303 305 307 309 311 312 313 314 314 314
268 268 269 270 271 272 273 275 276 278 279 279 279 279 280 280 278 277 277 276 274 274 273 271 270 270 270 270 270 270 270 270 270 269 269 269 270 271 271 272 274 275 276 278 279 280 283 285 285 287 289 290 291 291 291 292 293 295 296 296 298 302 305 305 306 307 309 309 304 305 312 309 304 304 304 304 303 301 300 302 306 308 309 310 311 312 312 312
268 268 269 270 271 271 272 274 275 276 277 279 279 280 280 279 279 278 278 279 278 277 276 274 272 272 272 272 272 271 271 271 270 270 270 270 270 271 272 273 274 275 276 278 279 281 284 285 286 287 288 288 289 289 289 291 292 293 295 295 297 301 303 303 304 306 307 308 306 308 313 311 305 304 304 304 303 300 299 302 305 307 308 308 309 309 310 311
266 268 269 270 270 271 272 273 274 275 276 277 278 279 279 279 279 278 278 279 281 279 278 278 276 275 274 274 273 272 272 272 271 271 271 271 271 272 273 274 275 276 277 278 279 282 284 286 286 287 287 287 287 287 287 289 290 292 293 293 297 300 301 301 302 304 306 306 305 306 312 313 308 306 304 302 302 300 300 303 305 306 307 307 307 307 308 310
266 267 268 268 269 270 272 272 273 274 275 276 277 278 278 279 278 278 277 278 281 282 280 280 280 278 277 276 274 273 272 272 273 273 273 273 273 274 275 275 276 277 278 279 280 283 285 285 286 286 286 285 285 285 285 287 290 291 291 293 297 299 299 299 299 302 304 305 304 302 307 312 311 309 303 300 302 300 300 304 306 307 307 306 306 307 308 310
266 266 267 268 268 269 270 271 272 273 274 275 276 277 277 278 278 278 277 277 280 284 282 280 281 280 279 277 275 274 273 273 274 275 275 275 275 276 276 277 278 278 278 280 282 284 285 284 285 285 285 284 284 284 284 287 289 289 290 292 295 297 297 297 297 298 302 305 305 301 302 307 310 310 302 300 303 299 301 307 307 307 307 305 306 306 308 311
267 267 267 267 268 268 269 270 271 271 273 274 275 276 276 277 277 277 277 277 279 283 283 283 281 279 278 276 274 274 274 275 276 276 276 277 277 278 278 279 279 279 280 281 282 283 284 283 283 284 283 283 284 283 284 287 288 287 289 291 294 295 295 296 295 297 300 303 306 303 299 302 309 305 294 297 298 295 301 308 306 305 305 304 304 306 308 310
267 267 267 267 268 268 269 269 270 270 271 272 273 274 275 276 277 277 277 278 279 281 284 284 281 279 277 275 272 272 272 273 274 275 277 277 278 279 279 279 279 279 280 281 281 282 282 282 283 282 282 283 283 283 285 287 287 286 288 290 293 293 293 294 295 297 300 302 307 303 297 300 308 300 292 294 291 292 302 306 303 303 302 302 304 306 308 309
266 266 266 267 267 268 269 269 270 271 271 271 271 272 273 274 275 276 277 279 281 282 282 283 280 277 275 273 272 271 271 271 272 273 275 276 276 277 278 278 278 279 279 279 280 280 280 281 282 282 283 283 283 284 286 286 286 287 286 289 291 291 292 293 294 297 298 303 309 301 297 302 306 300 295 291 287 293 303 303 301 301 300 301 304 306 309 309
265 265 266 266 267 267 268 268 270 270 270 270 270 270 271 272 273 274 276 279 281 281 280 278 277 275 274 273 272 272 272 272 272 273 274 275 275 276 276 277 277 278 278 278 280 279 279 280 281 282 283 283 283 285 286 286 287 286 286 288 289 289 291 292 294 295 297 304 307 299 298 304 306 302 295 287 288 297 303 301 300 300 299 302 304 307 308 309
263 264 265 266 267 267 267 268 269 269 270 270 270 271 271 271 272 273 276 281 281 277 275 274 275 275 273 272 272 273 274 274 274 274 274 275 276 276 277 277 278 278 278 279 280 279 279 281 282 283 284 284 285 286 286 287 287 287 286 288 288 289 291 292 293 294 296 304 304 298 299 303 305 302 291 289 293 299 302 301 300 299 299 302 304 306 308 309
262 263 264 266 266 267 267 268 268 268 269 270 270 271 271 272 273 274 280 286 280 273 271 271 272 271 270 272 273 275 275 276 276 276 276 276 277 277 278 278 278 279 279 280 280 279 281 282 283 284 285 285 286 287 287 287 288 288 288 288 288 289 291 291 292 294 297 303 302 298 299 300 304 300 291 293 298 301 301 299 298 298 299 302 304 306 308 308
264 264 265 266 266 267 267 268 268 268 269 269 270 271 272 273 276 282 290 286 276 272 272 270 269 269 271 273 275 276 276 276 277 277 277 277 278 279 280 280 280 280 280 280 280 280 282 284 284 285 286 287 287 287 288 287 288 288 289 289 289 290 290 291 293 294 298 302 298 296 297 299 302 298 293 297 300 301 299 296 296 297 299 302 304 306 307 307
266 266 267 267 267 267 268 267 268 268 269 269 270 271 272 275 281 292 292 281 275 274 271 268 268 269 272 274 275 276 276 277 277 277 277 278 279 280 281 281 282 281 281 281 280 281 283 284 286 286 286 287 287 287 287 287 288 288 289 290 290 291 291 291 293 296 299 299 295 295 296 298 300 297 297 301 302 299 296 294 296 296 298 301 303 305 306 306
268 268 268 268 269 269 269 268 268 269 269 269 270 271 272 276 285 292 286 279 276 273 268 268 269 269 270 272 273 275 276 277 277 277 278 278 280 281 281 282 282 282 282 281 281 282 283 285 287 287 286 286 287 287 287 287 288 289 290 291 292 293 292 293 296 296 295 293 293 294 296 298 298 297 300 303 300 296 294 294 295 295 297 300 302 304 304 304
271 271 270 270 270 270 269 269 269 270 269 269 270 270 272 278 284 282 279 278 276 274 272 272 270 269 270 271 272 274 275 276 276 277 277 278 280 280 281 282 282 282 282 282 283 283 283 284 285 285 285 286 286 286 287 288 289 290 292 293 294 293 293 296 297 295 291 289 291 294 296 298 298 299 302 300 296 294 293 293 294 295 298 300 302 304 303 304
273 273 273 273 272 271 269 269 269 270 270 270 270 270 275 282 279 275 275 277 277 277 276 274 272 271 272 272 273 273 274 274 275 276 277 278 279 280 281 282 282 282 283 284 284 282 282 283 283 282 284 285 285 286 287 288 290 292 293 293 294 294 296 297 296 293 290 289 291 294 296 298 300 303 304 299 295 294 293 294 295 297 299 302 304 304 303 304
272 273 275 275 275 273 271 270 270 270 270 271 271 274 280 279 274 273 273 273 274 276 274 273 274 274 275 275 275 274 274 274 275 276 277 277 278 280 281 281 281 283 284 284 283 282 282 283 282 282 283 283 284 285 287 290 293 294 293 294 294 295 296 295 293 291 291 291 294 297 296 299 305 307 304 298 295 294 293 294 296 298 300 302 303 302 303 304
269 271 273 275 276 275 274 273 272 271 271 271 273 279 283 277 274 273 271 270 270 271 271 272 274 275 276 276 276 276 276 276 277 277 277 277 278 281 282 281 281 283 283 282 282 282 283 282 281 282 282 283 284 287 290 294 294 293 293 294 295 296 295 293 292 291 292 293 296 298 295 300 308 308 302 296 293 291 292 294 295 296 299 300 300 301 302 303
268 268 270 272 273 274 274 274 274 273 272 273 276 282 281 277 275 272 270 269 268 268 270 271 272 273 273 274 275 276 276 277 278 277 277 278 279 282 283 283 283 283 282 281 280 281 282 282 281 281 282 283 286 290 293 293 291 292 294 294 295 294 293 292 291 292 294 295 296 296 294 300 308 305 299 294 291 291 293 294 295 296 298 299 300 301 303 304
268 268 269 269 270 271 273 274 274 273 273 275 279 280 277 276 275 273 271 270 269 270 271 272 272 271 271 272 272 273 274 276 276 276 277 278 280 282 283 283 283 282 280 279 279 280 281 282 282 281 282 285 289 292 291 290 290 292 293 293 293 292 291 291 292 295 296 295 295 295 294 300 307 303 298 294 292 293 295 297 297 298 299 300 301 302 303 305
267 267 268 268 269 269 270 271 272 273 274 276 278 277 276 275 275 274 272 271 270 271 271 271 272 272 273 272 271 271 272 273 273 274 275 277 278 278 278 279 279 279 278 278 279 281 281 282 282 282 284 288 290 290 289 290 292 292 293 293 292 291 290 291 293 295 294 294 295 295 294 302 307 299 294 291 291 295 298 298 298 298 300 301 302 303 303 305
266 267 268 268 268 267 268 269 271 273 275 276 278 278 276 274 273 272 272 272 272 272 273 273 273 273 274 273 272 272 272 272 272 272 273 275 275 275 275 274 274 275 276 277 279 280 281 281 281 283 286 287 287 287 289 290 291 291 292 292 292 291 292 293 293 293 293 293 295 295 295 303 307 295 290 290 293 298 299 298 298 298 300 302 303 303 304 305
265 266 267 266 266 267 267 268 269 272 274 276 276 276 274 272 272 272 272 273 274 274 275 275 274 274 273 273 274 274 274 274 273 273 274 275 275 275 274 273 273 273 274 275 277 278 279 279 280 282 284 285 285 287 288 289 289 289 289 290 290 291 293 293 293 293 293 293 296 295 295 303 305 293 291 294 298 299 299 298 298 299 302 303 303 303 305 306
265 265 265 264 265 266 266 267 269 271 273 273 272 271 271 272 272 272 273 273 273 274 274 274 274 274 274 275 275 275 276 276 276 277 277 276 275 274 274 273 273 274 274 275 276 276 276 277 278 280 282 284 286 288 288 288 288 287 288 290 291 292 293 292 293 294 293 295 298 294 293 301 302 293 294 299 299 299 298 297 298 300 303 303 303 305 306 307
264 264 264 264 265 265 266 267 269 269 270 269 269 270 271 271 271 272 272 271 271 271 272 274 275 276 276 277 276 277 278 279 279 278 277 276 275 274 274 274 274 274 275 275 275 275 276 276 278 280 282 284 286 288 288 288 286 286 289 291 292 292 293 293 293 292 293 297 297 291 291 298 298 295 299 301 298 298 298 297 299 302 303 304 305 306 307 308
263 263 263 264 265 265 266 267 268 268 268 269 269 269 269 269 269 269 269 269 270 271 272 273 274 275 276 276 278 279 279 279 278 276 275 275 276 275 275 275 274 275 275 275 274 274 275 276 278 281 283 284 285 287 287 285 285 287 290 291 291 293 294 294 293 291 293 295 291 288 293 296 294 297 302 300 298 298 298 299 301 303 304 306 307 307 308 308
262 262 263 264 265 266 267 267 267 268 269 269 269 268 268 268 268 268 268 269 270 271 271 271 272 273 274 276 277 277 276 276 275 274 275 276 277 276 275 274 275 275 275 275 275 275 276 277 279 282 283 284 286 286 284 283 284 286 287 288 289 292 293 294 293 292 294 292 288 290 296 295 293 298 301 299 297 297 298 300 301 303 306 307 307 307 308 309
261 262 263 264 265 265 266 267 268 269 268 268 267 267 267 267 267 268 269 270 270 270 270 270 270 272 273 275 275 274 273 273 273 275 279 280 278 276 275 274 274 274 275 276 276 277 278 279 280 283 284 285 286 285 283 283 284 285 285 286 288 290 292 294 294 293 293 291 290 295 297 293 294 300 300 298 297 297 299 301 302 305 306 306 307 308 309 309
263 263 264 264 264 265 266 267 267 267 266 266 266 266 267 267 268 268 269 269 268 269 269 270 270 271 272 272 272 271 271 272 274 278 280 278 277 276 275 274 273 274 274 275 276 279 280 281 283 284 284 284 286 285 285 284 284 284 285 286 288 291 292 293 292 292 292 291 293 297 295 294 299 304 300 297 298 300 302 303 305 306 306 306 308 309 309 308
264 265 265 265 265 265 265 265 265 264 265 266 266 266 266 267 268 268 268 267 268 268 269 269 270 271 271 270 270 270 271 274 277 278 277 275 274 274 273 272 273 274 274 274 276 278 279 280 282 283 283 282 284 285 284 283 283 284 284 287 290 291 290 290 290 292 293 293 295 295 293 296 303 304 300 301 303 304 305 306 307 306 306 307 308 308 307 307
265 266 266 265 265 265 265 265 265 265 265 265 265 267 268 268 268 268 267 267 267 267 268 269 270 270 269 269 269 270 273 275 276 275 273 273 272 271 272 273 274 274 274 275 276 277 279 280 281 281 281 281 282 283 281 281 282 282 283 288 291 289 287 288 290 293 293 293 294 294 295 299 304 303 301 303 305 304 305 306 306 306 306 307 306 306 306 306
266 266 266 265 266 267 267 266 266 266 266 266 267 269 269 269 268 268 267 267 268 268 269 270 269 268 268 268 270 273 274 274 273 272 271 271 271 272 273 274 275 276 276 277 278 279 280 281 282 282 281 282 283 282 281 282 281 281 285 291 290 286 286 290 293 294 294 294 295 297 299 303 303 301 301 303 303 304 305 305 305 306 305 304 304 305 306 306
264 264 265 266 266 267 267 267 266 266 267 269 270 271 270 269 268 267 268 269 271 270 269 269 268 268 269 271 275 276 274 271 270 270 271 271 272 273 274 275 275 276 277 279 280 281 282 282 283 283 283 284 284 283 283 282 281 283 291 293 287 287 292 296 296 295 294 295 296 298 301 302 302 300 301 302 303 304 304 304 305 304 302 302 304 305 304 304
Height
10838 10838 10838 10838 10838 10838 10838 10837 10837 10837 10837 10837 10837 10837 10837 10837 10837 10837 10837 10837 10837 10837 10837 10837 10837 10836 10836 10835 10835 10835 10834 10834 10834 10833 10833 10832 10831 10831 10830 10829 10828 10827 10827 10826 10824 10823 10821 10819 10817 10817 10816 10815 10814 10813 10811 10810 10808 10807 10805 10803 10801 10799 10797 10795 10794 10792 10791 10789 10787 10785 10784 10783 10782 10781 10781 10780 10779 10778 10777 10775 10775 10774 10773 10772 10771 10770 10769 10768
10836 10836 10836 10836 10836 10836 10836 10835 10835 10835 10835 10835 10835 10835 10834 10834 10834 10834 10835 10835 10835 10835 10834 10834 10834 10834 10834 10834 10833 10833 10832 10832 10832 10831 10831 10830 10830 10829 10828 10827 10826 10825 10825 10824 10823 10821 10820 10818 10816 10814 10813 10812 10811 10810 10809 10807 10806 10805 10803 10802 10800 10798 10796 10794 10793 10791 10789 10787 10785 10784 10782 10781 10780 10779 10779 10778 10777 10776 10775 10774 10773 10772 10772 10771 10769 10768 10767 10766
10834 10834 10833 10833 10833 10833 10833 10833 10833 10833 10833 10832 10832 10832 10832 10832 10832 10832 10832 10832 10832 10832 10832 10832 10832 10832 10831 10831 10831 10831 10830 10830 10830 10829 10829 10829 10828 10827 10826 10825 10824 10823 10822 10821 10820 10819 10818 10817 10815 10813 10811 10810 10809 10808 10807 10805 10804 10802 10801 10800 10799 10797 10795 10793 10791 10789 10788 10786 10784 10782 10780 10779 10778 10777 10776 10775 10775 10774 10774 10773 10772 10771 10770 10769 10768 10766 10765 10764
10831 10831 10831 10831 10831 10831 10831 10831 10831 10831 10830 10830 10830 10829 10829 10829 10829 10829 10829 10829 10829 10829 10829 10829 10829 10829 10829 10828 10828 10828 10828 10828 10827 10827 10827 10826 10826 10825 10824 10823 10822 10821 10820 10819 10818 10817 10815 10814 10813 10811 10809 10808 10807 10805 10804 10802 10801 10800 10799 10798 10796 10795 10794 10792 10790 10788 10786 10784 10783 10781 10779 10777 10775 10774 10773 10772 10772 10771 10771 10770 10770 10769 10768 10767 10766 10764 10763 10761
10828 10828 10828 10828 10828 10828 10828 10828 10828 10828 10828 10828 10827 10827 10827 10826 10827 10827 10826 10826 10826 10826 10827 10826 10826 10826 10826 10825 10825 10825 10825 10825 10824 10824 10824 10824 10824 10823 10822 10821 10820 10819 10818 10816 10815 10814 10813 10812 10811 10809 10807 10806 10804 10803 10801 10800 10798 10797 10796 10795 10794 10793 10791 10790 10788 10786 10785 10783 10781 10779 10777 10775 10773 10772 10770 10769 10768 10767 10767 10767 10766 10766 10765 10764 10763 10761 10760 10758
10825 10825 10825 10825 10825 10825 10825 10825 10825 10825 10825 10825 10825 10825 10824 10824 10824 10824 10824 10824 10823 10824 10824 10824 10824 10823 10823 10823 10822 10822 10822 10822 10822 10821 10822 10821 10821 10821 10820 10819 10818 10817 10816 10814 10813 10812 10810 10809 10808 10807 10805 10804 10802 10801 10800 10799 10797 10795 10794 10793 10792 10791 10789 10788 10786 10784 10782 10781 10779 10777 10775 10773 10772 10770 10768 10766 10765 10764 10763 10763 10762 10761 10760 10760 10759 10757 10756 10755
10822 10822 10822 10822 10822 10821 10821 10822 10822 10822 10822 10823 10822 10822 10822 10821 10820 10821 10821 10821 10821 10821 10821 10821 10821 10821 10820 10820 10820 10819 10819 10819 10819 10819 10819 10819 10818 10818 10818 10817 10816 10815 10814 10813 10811 10810 10808 10806 10805 10804 10803 10802 10800 10799 10798 10797 10796 10794 10792 10791 10790 10789 10787 10786 10784 10782 10780 10779 10777 10775 10773 10771 10770 10769 10766 10764 10762 10761 10760 10759 10758 10757 10756 10756 10755 10754 10753 10752
10818 10818 10818 10818 10818 10818 10818 10818 10819 10819 10819 10820 10820 10819 10819 10818 10817 10817 10818 10818 10818 10818 10818 10818 10818 10818 10818 10817 10817 10817 10817 10817 10816 10816 10816 10816 10816 10816 10815 10815 10814 10813 10812 10811 10809 10808 10807 10804 10803 10802 10801 10800 10798 10797 10796 10795 10794 10793 10791 10789 10788 10787 10785 10784 10782 10780 10778 10776 10774 10772 10770 10769 10768 10766 10764 10761 10760 10759 10757 10756 10755 10754 10753 10753 10752 10751 10749 10748
10813 10814 10814 10814 10814 10814 10814 10814 10815 10815 10816 10816 10816 10816 10816 10815 10814 10814 10814 10815 10815 10815 10815 10815 10815 10815 10815 10814 10814 10814 10814 10814 10814 10813 10813 10812 10813 10813 10812 10812 10811 10810 10810 10808 10807 10806 10805 10803 10801 10799 10798 10797 10796 10795 10793 10792 10791 10790 10789 10787 10785 10784 10783 10781 10779 10777 10776 10774 10772 10770 10768 10767 10766 10764 10761 10759 10757 10756 10755 10754 10753 10752 10751 10750 10749 10747 10746 10745
10809 10809 10809 10810 10810 10810 10810 10810 10811 10811 10812 10812 10812 10812 10812 10812 10811 10810 10810 10811 10811 10811 10812 10812 10812 10811 10811 10811 10811 10811 10811 10811 10811 10810 10810 10809 10809 10809 10809 10809 10809 10808 10807 10806 10805 10803 10803 10802 10800 10797 10796 10795 10793 10792 10791 10789 10788 10787 10786 10785 10783 10781 10780 10779 10777 10775 10774 10772 10770 10768 10765 10765 10765 10762 10759 10757 10755 10754 10753 10752 10750 10749 10748 10747 10746 10744 10743 10741
10805 10805 10805 10805 10805 10805 10805 10805 10806 10807 10807 10808 10808 10808 10808 10808 10808 10807 10807 10807 10807 10807 10808 10808 10808 10808 10808 10808 10807 10807 10807 10808 10807 10807 10806 10806 10806 10806 10806 10805 10805 10805 10804 10803 10802 10801 10800 10799 10798 10796 10794 10792 10791 10789 10788 10786 10785 10783 10782 10782 10781 10779 10777 10776 10775 10773 10771 10770 10768 10765 10762 10763 10763 10759 10757 10755 10753 10752 10750 10749 10747 10746 10745 10744 10743 10741 10739 10738
10801 10801 10801 10800 10800 10800 10800 10801 10801 10802 10802 10803 10804 10804 10804 10804 10804 10803 10803 10803 10803 10803 10803 10804 10804 10804 10804 10804 10804 10803 10803 10804 10804 10804 10803 10802 10802 10802 10802 10802 10802 10802 10801 10801 10799 10798 10797 10796 10795 10794 10792 10790 10788 10787 10785 10784 10782 10780 10778 10777 10777 10777 10775 10773 10772 10770 10769 10767 10766 10763 10758 10759 10761 10757 10755 10753 10751 10749 10747 10746 10745 10744 10743 10741 10740 10738 10736 10734
10797 10797 10796 10796 10796 10795 10796 10796 10796 10797 10797 10798 10799 10799 10799 10799 10799 10799 10799 10799 10799 10799 10799 10799 10799 10800 10800 10799 10800 10800 10799 10800 10800 10799 10799 10799 10798 10798 10798 10798 10797 10798 10798 10797 10796 10795 10794 10793 10792 10791 10789 10788 10786 10784 10783 10781 10780 10778 10775 10774 10773 10773 10773 10771 10770 10768 10767 10765 10764 10761 10755 10755 10758 10755 10752 10751 10749 10747 10745 10743 10741 10740 10739 10737 10736 10734 10732 10730
10794 10793 10793 10792 10792 10791 10791 10791 10791 10792 10792 10793 10794 10795 10794 10794 10795 10795 10794 10795 10795 10795 10795 10795 10795 10796 10795 10794 10795 10795 10795 10795 10795 10795 10794 10794 10794 10794 10793 10793 10793 10793 10793 10793 10793 10792 10791 10789 10789 10787 10786 10785 10784 10782 10780 10779 10777 10775 10773 10771 10769 10768 10768 10768 10767 10765 10764 10763 10761 10760 10754 10750 10752 10751 10749 10747 10744 10742 10740 10738 10738 10736 10734 10733 10731 10730 10728 10726
10790 10790 10789 10789 10788 10788 10787 10787 10787 10787 10787 10788 10788 10789 10790 10789 10790 10790 10790 10790 10790 10790 10791 10791 10791 10792 10791 10789 10790 10790 10790 10790 10790 10790 10790 10790 10789 10789 10789 10789 10789 10789 10789 10789 10788 10788 10787 10786 10785 10784 10782 10781 10780 10779 10777 10776 10774 10773 10771 10769 10767 10764 10763 10764 10764 10762 10760 10759 10758 10758 10753 10747 10747 10746 10744 10742 10739 10737 10734 10733 10732 10731 10729 10728 10727 10725 10723 10721
10787 10786 10786 10786 10785 10784 10784 10783 10783 10783 10783 10783 10783 10784 10785 10784 10784 10785 10785 10785 10785 10785 10786 10786 10786 10788 10786 10784 10785 10785 10785 10785 10785 10785 10785 10785 10785 10785 10785 10784 10784 10784 10784 10784 10784 10784 10783 10782 10781 10780 10779 10777 10776 10775 10774 10772 10771 10769 10768 10766 10764 10762 10760 10760 10760 10759 10757 10755 10753 10754 10751 10745 10743 10742 10740 10738 10735 10732 10730 10729 10727 10726 10725 10724 10722 10720 10718 10717
10783 10783 10783 10782 10781 10781 10780 10780 10779 10779 10778 10779 10779 10779 10780 10780 10779 10780 10780 10780 10780 10780 10781 10781 10781 10783 10782 10780 10780 10780 10781 10780 10779 10780 10779 10780 10780 10780 10780 10780 10779 10779 10779 10779 10779 10779 10779 10778 10777 10776 10774 10773 10772 10771 10770 10769 10767 10766 10764 10762 10761 10760 10758 10756 10756 10755 10754 10751 10749 10750 10749 10742 10738 10738 10737 10734 10732 10728 10725 10724 10723 10722 10721 10719 10718 10716 10714 10712
10780 10779 10779 10778 10778 10777 10777 10776 10775 10775 10774 10774 10775 10774 10775 10776 10775 10775 10775 10775 10775 10775 10776 10776 10776 10778 10776 10776 10775 10775 10775 10775 10774 10774 10774 10775 10775 10775 10775 10775 10775 10775 10774 10774 10774 10774 10774 10773 10772 10771 10770 10769 10768 10767 10766 10765 10763 10762 10760 10758 10757 10756 10755 10754 10753 10751 10750 10748 10743 10744 10747 10741 10733 10731 10732 10730 10727 10723 10720 10719 10718 10716 10716 10714 10713 10711 10709 10707
10776 10776 10775 10774 10774 10774 10773 10772 10772 10771 10770 10770 10771 10770 10770 10771 10771 10771 10771 10771 10771 10771 10771 10771 10772 10772 10771 10771 10771 10770 10770 10769 10768 10768 10768 10770 10770 10770 10770 10770 10770 10770 10769 10768 10769 10769 10769 10768 10766 10766 10765 10764 10763 10762 10761 10760 10759 10758 10756 10754 10753 10752 10750 10749 10750 10749 10747 10746 10740 10739 10743 10738 10730 10725 10724 10725 10722 10718 10715 10714 10713 10712 10710 10709 10707 10706 10704 10702
10772 10771 10771 10770 10770 10769 10769 10768 10768 10767 10766 10766 10767 10766 10766 10767 10767 10767 10767 10767 10767 10767 10766 10766 10767 10766 10766 10766 10766 10765 10764 10763 10762 10761 10762 10764 10765 10765 10765 10765 10766 10765 10764 10764 10764 10763 10764 10762 10760 10761 10760 10758 10758 10757 10756 10756 10755 10754 10752 10750 10749 10749 10747 10744 10745 10745 10744 10744 10738 10735 10738 10735 10727 10721 10717 10717 10716 10711 10709 10709 10708 10707 10706 10704 10702 10701 10698 10697
10767 10766 10766 10766 10766 10765 10765 10764 10764 10763 10762 10762 10762 10763 10763 10763 10762 10763 10763 10762 10762 10763 10762 10762 10762 10762 10762 10761 10761 10760 10758 10757 10755 10755 10757 10758 10759 10759 10760 10760 10760 10759 10759 10759 10758 10758 10759 10756 10753 10755 10755 10753 10753 10751 10750 10750 10750 10749 10747 10746 10744 10745 10744 10740 10739 10740 10740 10741 10737 10733 10735 10732 10725 10719 10712 10709 10709 10704 10702 10703 10703 10702 10700 10699 10697 10695 10693 10691
10762 10761 10761 10761 10760 10760 10761 10760 10759 10759 10758 10758 10758 10758 10758 10759 10759 10759 10760 10759 10759 10759 10758 10757 10758 10758 10757 10757 10756 10754 10753 10750 10749 10749 10751 10752 10752 10754 10754 10754 10754 10754 10753 10753 10753 10753 10753 10749 10746 10748 10749 10748 10747 10745 10744 10744 10744 10744 10742 10741 10740 10739 10741 10738 10734 10735 10735 10736 10735 10731 10732 10729 10721 10716 10709 10705 10702 10696 10695 10698 10697 10696 10695 10693 10691 10689 10687 10685
10757 10756 10756 10756 10755 10756 10756 10755 10754 10754 10754 10754 10754 10754 10754 10754 10754 10755 10756 10757 10756 10755 10754 10754 10754 10754 10753 10752 10751 10749 10747 10744 10744 10744 10744 10746 10747 10748 10749 10748 10748 10748 10746 10747 10748 10748 10746 10743 10741 10741 10743 10742 10741 10739 10738 10739 10740 10738 10736 10735 10736 10734 10735 10735 10731 10730 10729 10729 10730 10727 10730 10728 10720 10713 10703 10700 10699 10687 10687 10692 10689 10688 10688 10685 10684 10682 10681 10679
10751 10750 10750 10750 10750 10750 10751 10750 10750 10749 10749 10749 10749 10749 10749 10749 10750 10751 10752 10755 10756 10752 10749 10750 10750 10749 10748 10747 10745 10742 10741 10739 10739 10738 10738 10740 10740 10742 10743 10742 10743 10741 10739 10741 10742 10743 10739 10736 10736 10736 10736 10736 10734 10733 10731 10734 10735 10733 10729 10729 10731 10729 10728 10730 10728 10727 10725 10723 10723 10720 10725 10728 10721 10713 10697 10693 10695 10681 10678 10685 10681 10680 10681 10678 10677 10675 10674 10673
10745 10744 10744 10744 10744 10745 10745 10745 10744 10743 10744 10744 10744 10743 10744 10745 10745 10746 10747 10751 10756 10751 10746 10746 10746 10744 10742 10740 10738 10736 10735 10735 10734 10733 10733 10734 10735 10736 10737 10736 10737 10734 10733 10735 10737 10737 10732 10728 10731 10731 10729 10729 10728 10725 10724 10728 10731 10728 10723 10721 10725 10724 10722 10723 10722 10723 10722 10720 10718 10709 10713 10725 10724 10714 10698 10689 10688 10677 10675 10681 10675 10674 10674 10672 10672 10670 10669 10668
10738 10737 10738 10738 10738 10738 10739 10740 10738 10738 10739 10739 10739 10738 10739 10740 10740 10741 10742 10747 10754 10750 10744 10742 10741 10739 10736 10732 10731 10730 10730 10730 10730 10729 10729 10729 10730 10731 10730 10730 10729 10728 10728 10729 10731 10731 10724 10721 10724 10724 10723 10723 10721 10718 10717 10721 10724 10723 10718 10714 10717 10717 10716 10717 10714 10716 10717 10717 10718 10702 10697 10718 10723 10712 10700 10689 10680 10674 10675 10675 10670 10668 10668 10666 10666 10665 10665 10663
10731 10731 10731 10732 10732 10732 10733 10733 10731 10732 10732 10732 10733 10733 10733 10735 10735 10736 10737 10743 10751 10748 10742 10737 10734 10733 10729 10725 10725 10723 10724 10725 10724 10725 10724 10724 10726 10725 10725 10724 10722 10722 10722 10722 10725 10723 10718 10717 10717 10716 10717 10716 10713 10712 10712 10712 10716 10718 10713 10709 10710 10709 10709 10710 10707 10709 10709 10712 10716 10698 10686 10708 10719 10708 10700 10687 10673 10671 10672 10667 10663 10661 10660 10660 10660 10660 10659 10657
10725 10724 10724 10725 10725 10725 10727 10727 10726 10725 10725 10725 10726 10726 10728 10729 10730 10731 10733 10739 10746 10745 10739 10733 10727 10726 10723 10719 10719 10718 10719 10719 10719 10720 10719 10719 10721 10720 10720 10718 10716 10717 10715 10716 10719 10715 10711 10712 10711 10710 10710 10708 10706 10705 10705 10705 10707 10710 10707 10704 10703 10701 10702 10703 10702 10701 10702 10708 10710 10694 10683 10698 10710 10704 10694 10681 10669 10668 10667 10658 10654 10653 10651 10653 10654 10654 10653 10651
10718 10717 10718 10719 10718 10718 10719 10720 10720 10718 10717 10718 10718 10719 10721 10723 10724 10726 10729 10735 10740 10738 10734 10728 10722 10720 10716 10713 10714 10714 10714 10714 10714 10716 10714 10714 10715 10714 10714 10712 10710 10710 10708 10710 10712 10707 10705 10707 10705 10704 10703 10701 10699 10699 10699 10698 10700 10700 10699 10698 10695 10695 10696 10695 10695 10694 10695 10703 10702 10689 10683 10690 10700 10699 10686 10675 10668 10665 10661 10651 10645 10643 10642 10645 10647 10647 10647 10644
10711 10711 10711 10712 10712 10712 10711 10712 10712 10710 10710 10711 10711 10712 10714 10716 10719 10722 10727 10731 10731 10728 10727 10725 10718 10712 10709 10708 10709 10710 10710 10710 10709 10710 10710 10709 10709 10709 10708 10705 10702 10703 10702 10704 10703 10699 10699 10701 10700 10698 10696 10695 10693 10692 10692 10691 10691 10691 10691 10690 10687 10688 10689 10687 10689 10686 10688 10697 10693 10684 10683 10684 10691 10692 10679 10672 10667 10660 10654 10645 10637 10634 10634 10637 10640 10641 10640 10637
10705 10704 10705 10707 10706 10705 10705 10704 10703 10703 10703 10703 10704 10705 10707 10710 10714 10719 10725 10725 10720 10719 10720 10717 10711 10706 10704 10704 10705 10704 10703 10704 10704 10703 10703 10704 10704 10704 10702 10698 10696 10695 10695 10696 10694 10692 10694 10695 10693 10691 10689 10688 10686 10686 10686 10684 10684 10683 10682 10680 10678 10680 10680 10680 10682 10679 10681 10688 10684 10680 10680 10680 10684 10681 10673 10670 10665 10656 10646 10637 10632 10627 10626 10631 10632 10633 10632 10629
10697 10697 10699 10699 10698 10697 10697 10696 10695 10695 10696 10695 10696 10699 10701 10706 10713 10718 10719 10714 10711 10713 10711 10705 10704 10703 10701 10700 10700 10697 10696 10698 10697 10696 10696 10697 10699 10699 10695 10692 10689 10685 10687 10689 10685 10685 10690 10690 10686 10684 10683 10681 10679 10678 10678 10677 10676 10676 10674 10671 10670 10670 10668 10672 10676 10674 10675 10677 10674 10675 10676 10676 10678 10673 10667 10665 10659 10649 10637 10629 10625 10621 10621 10625 10625 10625 10624 10621
10690 10691 10692 10692 10691 10690 10688 10688 10687 10688 10688 10687 10689 10693 10696 10704 10715 10716 10710 10705 10703 10703 10701 10697 10698 10697 10696 10696 10695 10691 10690 10691 10690 10688 10689 10691 10693 10693 10690 10686 10681 10676 10676 10678 10677 10677 10682 10686 10682 10674 10674 10675 10672 10669 10668 10669 10669 10669 10667 10663 10662 10659 10653 10660 10669 10667 10668 10669 10666 10668 10670 10672 10672 10667 10664 10660 10652 10641 10630 10623 10617 10614 10617 10620 10619 10618 10616 10613
10682 10683 10684 10684 10683 10681 10679 10678 10678 10678 10678 10679 10682 10685 10692 10704 10713 10709 10702 10698 10693 10692 10693 10691 10690 10689 10690 10691 10690 10687 10683 10682 10683 10681 10681 10684 10687 10687 10683 10679 10674 10668 10665 10666 10668 10667 10671 10683 10680 10666 10665 10668 10664 10662 10660 10660 10660 10661 10660 10655 10654 10649 10641 10647 10657 10656 10656 10661 10663 10662 10663 10666 10664 10662 10660 10653 10643 10633 10622 10617 10611 10609 10612 10613 10612 10610 10606 10605
10673 10674 10675 10677 10675 10672 10668 10667 10669 10669 10668 10670 10672 10678 10692 10704 10704 10698 10696 10691 10684 10683 10683 10681 10681 10682 10684 10685 10684 10681 10676 10674 10676 10674 10674 10678 10679 10679 10678 10673 10666 10660 10657 10655 10655 10654 10659 10674 10674 10662 10660 10660 10656 10656 10654 10652 10654 10654 10652 10648 10645 10642 10636 10636 10641 10642 10641 10648 10658 10658 10656 10661 10658 10656 10654 10643 10633 10625 10614 10610 10606 10602 10604 10605 10604 10601 10596 10595
10666 10666 10667 10669 10667 10660 10656 10658 10660 10658 10658 10660 10662 10675 10693 10697 10691 10690 10690 10683 10677 10675 10672 10670 10673 10675 10677 10679 10677 10674 10668 10667 10670 10668 10668 10670 10671 10674 10674 10667 10660 10654 10651 10645 10639 10639 10647 10660 10664 10657 10655 10654 10650 10650 10649 10648 10648 10646 10644 10641 10637 10635 10632 10625 10624 10629 10628 10632 10649 10653 10649 10655 10655 10650 10646 10635 10624 10616 10608 10606 10602 10597 10597 10598 10596 10592 10589 10587
10657 10658 10660 10662 10658 10646 10643 10648 10649 10648 10649 10648 10654 10675 10688 10685 10683 10682 10679 10675 10670 10665 10662 10664 10668 10668 10669 10670 10670 10666 10659 10658 10663 10662 10661 10662 10666 10671 10667 10659 10656 10650 10644 10636 10626 10625 10631 10642 10652 10650 10647 10647 10645 10644 10647 10646 10640 10636 10636 10635 10631 10627 10623 10616 10611 10616 10617 10618 10635 10645 10641 10647 10651 10644 10638 10628 10616 10608 10605 10603 10599 10594 10593 10592 10589 10586 10583 10581
10647 10649 10653 10655 10647 10635 10633 10637 10637 10638 10637 10638 10654 10674 10677 10674 10675 10672 10667 10664 10660 10655 10655 10659 10661 10660 10660 10662 10663 10658 10651 10651 10655 10653 10652 10654 10660 10666 10661 10653 10650 10645 10638 10627 10617 10617 10616 10622 10637 10643 10638 10639 10642 10642 10642 10639 10632 10630 10631 10629 10626 10618 10613 10608 10601 10604 10607 10604 10616 10631 10634 10641 10644 10636 10628 10618 10606 10601 10601 10599 10593 10588 10587 10585 10583 10579 10576 10572
10637 10640 10646 10645 10634 10626 10625 10625 10625 10625 10625 10635 10654 10664 10664 10665 10666 10662 10657 10653 10648 10647 10649 10652 10652 10649 10652 10655 10652 10648 10645 10645 10645 10643 10644 10648 10653 10659 10655 10646 10642 10638 10630 10618 10610 10610 10606 10604 10617 10631 10632 10633 10638 10638 10634 10630 10625 10624 10624 10623 10620 10611 10602 10599 10596 10598 10597 10590 10596 10610 10623 10638 10639 10625 10615 10606 10596 10593 10593 10591 10585 10580 10579 10577 10575 10571 10566 10563
10627 10630 10636 10634 10622 10617 10616 10612 10612 10615 10620 10633 10646 10650 10653 10656 10654 10652 10648 10642 10639 10639 10640 10644 10642 10639 10644 10645 10641 10640 10637 10636 10637 10635 10636 10643 10646 10650 10648 10639 10632 10626 10619 10612 10606 10603 10599 10593 10598 10614 10625 10630 10632 10629 10625 10623 10619 10615 10615 10614 10611 10602 10593 10591 10593 10595 10587 10578 10582 10587 10603 10633 10635 10615 10605 10596 10589 10589 10585 10581 10576 10572 10571 10569 10567 10563 10557 10553
10615 10619 10627 10623 10609 10605 10603 10600 10604 10609 10614 10627 10636 10638 10640 10641 10641 10642 10639 10634 10632 10631 10631 10633 10632 10632 10634 10633 10631 10631 10627 10626 10630 10628 10630 10637 10638 10638 10638 10629 10620 10615 10610 10605 10602 10597 10591 10582 10583 10600 10617 10623 10623 10621 10618 10616 10612 10608 10606 10604 10599 10592 10587 10582 10582 10588 10581 10572 10574 10568 10580 10620 10628 10604 10593 10589 10585 10585 10577 10570 10566 10563 10563 10562 10558 10553 10547 10543
10602 10609 10616 10607 10596 10594 10591 10591 10599 10602 10608 10621 10627 10623 10621 10625 10629 10632 10630 10627 10624 10622 10621 10621 10623 10622 10621 10622 10621 10620 10617 10617 10621 10622 10624 10629 10629 10628 10625 10616 10610 10608 10603 10596 10595 10590 10580 10571 10575 10591 10606 10612 10614 10615 10612 10608 10604 10599 10597 10596 10591 10586 10584 10574 10568 10575 10573 10568 10570 10554 10557 10602 10617 10590 10581 10583 10579 10576 10568 10559 10556 10555 10556 10553 10547 10542 10536 10532
10593 10596 10597 10591 10586 10584 10579 10583 10594 10597 10602 10611 10610 10606 10608 10613 10618 10622 10622 10619 10615 10613 10610 10610 10613 10611 10610 10612 10611 10609 10609 10608 10613 10617 10615 10617 10620 10617 10610 10605 10601 10598 10594 10589 10587 10579 10568 10564 10569 10581 10593 10601 10605 10606 10605 10600 10593 10588 10589 10589 10585 10581 10578 10569 10562 10562 10560 10564 10565 10541 10540 10583 10600 10579 10574 10577 10568 10563 10559 10549 10546 10547 10547 10543 10536 10532 10527 10521
10580 10578 10578 10578 10575 10571 10570 10580 10588 10586 10589 10595 10594 10596 10599 10600 10606 10612 10612 10608 10603 10601 10601 10602 10604 10602 10601 10601 10598 10600 10601 10598 10603 10607 10602 10603 10608 10606 10601 10596 10590 10587 10584 10581 10575 10566 10559 10558 10562 10570 10581 10591 10596 10597 10594 10589 10580 10577 10583 10582 10576 10574 10570 10565 10561 10551 10548 10560 10553 10526 10531 10567 10579 10567 10567 10565 10554 10550 10548 10540 10537 10538 10536 10531 10526 10521 10516 10510
10561 10561 10564 10565 10561 10558 10565 10575 10576 10571 10575 10580 10581 10585 10586 10587 10595 10599 10597 10595 10594 10593 10594 10595 10594 10593 10592 10590 10589 10593 10592 10588 10588 10589 10590 10593 10595 10596 10593 10584 10579 10577 10573 10569 10562 10554 10550 10552 10557 10564 10570 10579 10587 10588 10581 10575 10569 10569 10575 10572 10567 10567 10561 10559 10557 10545 10542 10547 10533 10519 10531 10548 10558 10562 10557 10547 10539 10537 10535 10530 10527 10526 10522 10519 10514 10508 10503 10499
10542 10544 10551 10554 10548 10546 10555 10564 10562 10561 10566 10567 10565 10570 10572 10575 10582 10584 10583 10585 10588 10586 10583 10583 10583 10583 10583 10583 10582 10582 10580 10576 10570 10571 10582 10589 10586 10584 10580 10572 10569 10565 10559 10556 10550 10544 10543 10547 10556 10560 10559 10564 10575 10576 10567 10560 10560 10562 10564 10562 10561 10559 10553 10551 10552 10545 10537 10524 10512 10524 10532 10523 10537 10560 10549 10531 10525 10523 10523 10521 10517 10514 10510 10505 10500 10495 10491 10487
10524 10531 10540 10543 10535 10531 10542 10552 10551 10552 10555 10550 10547 10553 10559 10563 10569 10573 10575 10577 10577 10572 10568 10571 10574 10574 10576 10576 10569 10565 10565 10562 10557 10564 10579 10580 10572 10568 10564 10561 10558 10552 10549 10546 10540 10537 10536 10541 10555 10557 10550 10553 10561 10561 10551 10545 10549 10551 10550 10554 10556 10550 10545 10544 10543 10541 10531 10505 10500 10526 10527 10502 10519 10549 10537 10517 10512 10509 10511 10510 10504 10502 10498 10490 10485 10481 10477 10472
10509 10522 10527 10525 10518 10518 10530 10541 10539 10535 10534 10532 10533 10538 10545 10552 10560 10565 10564 10562 10561 10558 10556 10560 10566 10567 10567 10562 10552 10548 10551 10551 10554 10566 10570 10562 10555 10551 10547 10546 10544 10542 10542 10536 10533 10534 10527 10532 10549 10547 10538 10544 10551 10548 10537 10529 10533 10537 10538 10546 10549 10542 10539 10536 10530 10530 10522 10500 10498 10516 10509 10495 10514 10528 10512 10501 10501 10497 10496 10495 10490 10487 10482 10475 10471 10467 10461 10456
10494 10506 10509 10507 10504 10505 10514 10522 10520 10514 10516 10520 10520 10523 10532 10543 10550 10552 10548 10545 10547 10547 10544 10546 10556 10559 10552 10545 10537 10533 10540 10549 10555 10559 10553 10542 10538 10534 10528 10529 10532 10533 10532 10529 10529 10529 10519 10524 10539 10534 10524 10534 10544 10539 10524 10513 10516 10522 10527 10539 10542 10532 10528 10523 10519 10520 10511 10497 10497 10499 10490 10497 10517 10508 10485 10485 10490 10482 10479 10480 10475 10469 10464 10460 10456 10452 10446 10440
10479 10490 10493 10488 10486 10489 10494 10499 10500 10497 10502 10505 10502 10510 10523 10531 10536 10537 10531 10529 10532 10532 10531 10536 10547 10547 10535 10528 10524 10524 10539 10549 10544 10540 10535 10523 10518 10517 10514 10518 10524 10521 10520 10522 10522 10519 10513 10516 10526 10520 10509 10521 10538 10529 10508 10503 10505 10504 10517 10540 10539 10517 10508 10512 10514 10510 10498 10488 10488 10483 10479 10497 10510 10491 10470 10473 10476 10468 10466 10467 10461 10454 10449 10445 10441 10436 10431 10426
10466 10472 10471 10464 10463 10470 10475 10479 10480 10479 10482 10484 10489 10503 10510 10512 10520 10521 10511 10511 10517 10520 10522 10526 10531 10529 10518 10513 10516 10526 10540 10537 10521 10518 10518 10506 10502 10507 10506 10508 10512 10508 10508 10512 10511 10509 10506 10505 10511 10505 10492 10506 10527 10513 10495 10496 10491 10488 10515 10541 10527 10498 10492 10504 10509 10499 10484 10473 10470 10469 10475 10487 10489 10475 10465 10466 10462 10456 10456 10454 10449 10443 10436 10430 10426 10422 10417 10411
10452 10453 10451 10447 10445 10448 10454 10459 10459 10456 10462 10471 10480 10488 10490 10492 10503 10501 10491 10497 10509 10510 10507 10506 10509 10510 10505 10507 10516 10524 10523 10511 10499 10500 10502 10494 10492 10496 10496 10497 10499 10498 10499 10500 10498 10498 10495 10493 10495 10489 10476 10487 10505 10497 10486 10482 10472 10486 10522 10527 10503 10489 10489 10491 10492 10486 10473 10461 10455 10457 10467 10474 10467 10455 10452 10454 10451 10448 10445 10440 10436 10430 10422 10416 10414 10409 10403 10397